(675) Ludmilla
ephemeris date magn radius delta ra dec elong phase
Today26 Aug 202614.43.322 AU3.731 AU13h48m-16°46'58.8°15.1°
Opposition21 Jun 202712.43.187 AU2.171 AU18h01m-21°39'178.1°0.6°
(675) Ludmilla - 2026-08-26
astro.vanbuitenen.nl


 
-1 year
-1 month
-1 day
Now
+1 day
+1 month
+1 year

The interactive orbit chart above shows the body's path through the solar system and its position at the given date. Green and blue lines are shown perpendicular to the ecliptic plane: Green if the path is above the ecliptic plane, blue if it is below. (Left-click and drag to rotate the view; Right-click and drag to move the view; Use scroll wheel to zoom in our out.)

The orbital elements of Ludmilla are:

            e (Eccentricity)                : 0.2048416
            a (Semimajor axis)              : 2.7672670
            i (Inclination)                 : 9.81081
            Ω (Longitude of ascending node) : 262.98792
            ω (Argument of perihelion)      : 152.33941
            M (Mean anomaly)                : 149.25728
            Epoch                           : 2026 Jun 09

            L (Longitude of perihelion)     : 235.67294
            B (Latitude of perihelion)      : 4.53702
            P (Orbital period in years)     : 4.60            
        

The light curve chart below shows the estimated development of the minor planet's magnitude.


The all-sky chart below shows the path of the minor planet over the same period as the light curve. The current position is marked yellow.





The following chart shows the path of the minor planet in the next few days. The field of view is optimized for (~10x50) binoculars and finderscopes.




Ephemerides:
Date       Time       RA (2000)    DEC (2000)    delta   radius  elong  phase   PA    magn
2026-08-26 00:00 UT   13 48 12.1   -16 46 40     3.731    3.322   58.8   15.1   114   14.4 
2026-08-26 13:41 UT   13 48 49.3   -16 48 47     3.738    3.323   58.4   15.0   114   14.4 
2026-08-27 00:00 UT   13 49 17.4   -16 50 23     3.744    3.323   58.1   15.0   114   14.4 
2026-08-28 00:00 UT   13 50 23.1   -16 54 08     3.756    3.323   57.4   14.8   114   14.4 
2026-08-29 00:00 UT   13 51 29.3   -16 57 56     3.768    3.323   56.7   14.7   114   14.4 
2026-08-30 00:00 UT   13 52 35.8   -17 01 46     3.781    3.324   56.0   14.6   114   14.4 
2026-08-31 00:00 UT   13 53 42.8   -17 05 39     3.793    3.324   55.3   14.5   114   14.4 
2026-09-01 00:00 UT   13 54 50.3   -17 09 34     3.805    3.324   54.7   14.3   114   14.4 
2026-09-02 00:00 UT   13 55 58.1   -17 13 31     3.817    3.325   54.0   14.2   114   14.4 
2026-09-03 00:00 UT   13 57 06.4   -17 17 30     3.828    3.325   53.3   14.1   114   14.4 
2026-09-04 00:00 UT   13 58 15.0   -17 21 31     3.840    3.325   52.6   13.9   114   14.4 
2026-09-05 00:00 UT   13 59 24.1   -17 25 34     3.852    3.326   51.9   13.8   114   14.4 
2026-09-06 00:00 UT   14 00 33.6   -17 29 39     3.863    3.326   51.2   13.7   114   14.4 
2026-09-07 00:00 UT   14 01 43.5   -17 33 46     3.874    3.326   50.5   13.5   114   14.4 
2026-09-08 00:00 UT   14 02 53.7   -17 37 55     3.886    3.327   49.9   13.4   114   14.4 
2026-09-09 00:00 UT   14 04 04.4   -17 42 06     3.897    3.327   49.2   13.2   114   14.4 
2026-09-10 00:00 UT   14 05 15.4   -17 46 18     3.908    3.327   48.5   13.1   114   14.4 
2026-09-11 00:00 UT   14 06 26.8   -17 50 32     3.919    3.327   47.8   13.0   114   14.4 
2026-09-12 00:00 UT   14 07 38.6   -17 54 47     3.929    3.328   47.1   12.8   114   14.4 
2026-09-13 00:00 UT   14 08 50.8   -17 59 04     3.940    3.328   46.5   12.7   114   14.4 
2026-09-14 00:00 UT   14 10 03.3   -18 03 22     3.951    3.328   45.8   12.5   114   14.4 
2026-09-15 00:00 UT   14 11 16.2   -18 07 42     3.961    3.328   45.1   12.4   114   14.4 
2026-09-16 00:00 UT   14 12 29.4   -18 12 03     3.971    3.329   44.4   12.2   114   14.4 
2026-09-17 00:00 UT   14 13 43.0   -18 16 25     3.981    3.329   43.8   12.1   114   14.4 
2026-09-18 00:00 UT   14 14 56.9   -18 20 47     3.991    3.329   43.1   11.9   114   14.4 
2026-09-19 00:00 UT   14 16 11.1   -18 25 11     4.001    3.329   42.4   11.7   114   14.4 
2026-09-20 00:00 UT   14 17 25.7   -18 29 36     4.011    3.330   41.8   11.6   114   14.4 
2026-09-21 00:00 UT   14 18 40.6   -18 34 02     4.021    3.330   41.1   11.4   114   14.4 
2026-09-22 00:00 UT   14 19 55.8   -18 38 29     4.030    3.330   40.4   11.3   114   14.4 
2026-09-23 00:00 UT   14 21 11.4   -18 42 56     4.039    3.330   39.7   11.1   114   14.4 
2026-09-24 00:00 UT   14 22 27.2   -18 47 24     4.049    3.330   39.1   10.9   114   14.4 


    Terminology:
            
    delta:  distance between minor planet and earth in AU
    radius: distance between minor planet and sun in AU
    magn:   magnitude (brightness) estimate    
    ra:     right ascension in hours (24h = 360deg)
    dec:    declination in degrees
    elong:  elongation in degrees (angle sun-earth-minor planet)    
    phase:  phase angle in degrees (angle sun-minor planet-earth)        
    AU:     Astronomical Unit (mean distance between earth and sun: 149597870.7 km
    

Orbital elements provided by the MPC (Minor Planet Center).
Calculations by a modified version of AAPlus, a C# implementation of the AA+ project by PJ Naughter from the algorithms presented in the book "Astronomical Algorithms" by Jean Meeus.
NGC2000 dso catalog and star labels from VizieR as provided by the Strasbourg astronomical Data Center.
Tycho2 catalog from the ESO archive.